QPF
0.00 0.00 0.00 0.00 0.00 0.00 0.00 0.00 0.00 0.00 0.00 0.00 0.00 0.00 0.00 0.00 0.00 0.00 0.00 0.02 0.02 0.01 0.00 0.00 0.00 0.00 0.00 0.00 0.00 0.00 0.00 0.00 0.00 0.00 0.00 0.00 0.00 0.00 0.00 0.00 0.00 0.00 0.00 0.00 0.00 0.00 0.00 0.00 0.00
0.00 0.00 0.00 0.00 0.00 0.00 0.00 0.00 0.00 0.00 0.00 0.00 0.00 0.00 0.00 0.00 0.00 0.00 0.01 0.06 0.04 0.01 0.02 0.00 0.00 0.00 0.00 0.00 0.00 0.00 0.00 0.00 0.00 0.00 0.00 0.00 0.00 0.00 0.00 0.00 0.00 0.00 0.00 0.00 0.00 0.00 0.00 0.00 0.00
0.00 0.00 0.00 0.00 0.00 0.00 0.00 0.00 0.00 0.00 0.00 0.00 0.00 0.00 0.00 0.00 0.00 0.00 0.01 0.08 0.04 0.19 0.06 0.00 0.00 0.00 0.01 0.00 0.00 0.00 0.00 0.00 0.00 0.00 0.00 0.00 0.00 0.00 0.00 0.00 0.00 0.00 0.00 0.00 0.00 0.00 0.00 0.00 0.00
0.00 0.00 0.00 0.00 0.00 0.00 0.00 0.00 0.00 0.00 0.00 0.00 0.00 0.00 0.00 0.00 0.00 0.00 0.01 0.04 0.14 0.22 0.01 0.01 0.00 0.00 0.00 0.00 0.00 0.01 0.02 0.01 0.00 0.00 0.00 0.00 0.00 0.00 0.00 0.00 0.00 0.00 0.00 0.00 0.00 0.00 0.00 0.00 0.00
0.00 0.00 0.00 0.00 0.00 0.00 0.00 0.00 0.00 0.00 0.00 0.00 0.00 0.00 0.00 0.00 0.00 0.00 0.00 0.04 0.08 0.14 0.02 0.03 0.02 0.03 0.00 0.00 0.00 0.01 0.07 0.04 0.00 0.00 0.00 0.00 0.00 0.01 0.01 0.00 0.00 0.00 0.00 0.00 0.00 0.00 0.00 0.00 0.00
0.00 0.00 0.00 0.00 0.00 0.00 0.00 0.00 0.00 0.00 0.00 0.00 0.00 0.00 0.00 0.00 0.00 0.00 0.00 0.01 0.00 0.13 0.09 0.09 0.02 0.01 0.01 0.00 0.00 0.00 0.04 0.06 0.01 0.00 0.00 0.00 0.00 0.01 0.00 0.00 0.00 0.00 0.00 0.00 0.00 0.00 0.00 0.00 0.00
0.00 0.00 0.00 0.00 0.00 0.00 0.00 0.00 0.00 0.00 0.00 0.00 0.00 0.00 0.00 0.00 0.00 0.00 0.00 0.01 0.04 0.13 0.44 0.57 0.23 0.07 0.09 0.02 0.00 0.01 0.06 0.09 0.06 0.00 0.00 0.00 0.00 0.00 0.00 0.00 0.00 0.00 0.00 0.00 0.00 0.00 0.00 0.00 0.00
0.00 0.00 0.00 0.00 0.00 0.00 0.00 0.00 0.00 0.00 0.00 0.00 0.00 0.00 0.00 0.00 0.00 0.00 0.02 0.02 0.00 0.03 0.15 0.45 0.64 0.17 0.21 0.08 0.02 0.02 0.07 0.16 0.14 0.01 0.00 0.00 0.00 0.00 0.00 0.00 0.00 0.00 0.00 0.00 0.00 0.00 0.00 0.00 0.00
0.00 0.00 0.00 0.00 0.00 0.00 0.00 0.00 0.00 0.00 0.00 0.00 0.00 0.00 0.00 0.00 0.00 0.00 0.02 0.02 0.01 0.08 0.17 0.16 0.16 0.11 0.18 0.12 0.05 0.01 0.06 0.14 0.18 0.03 0.00 0.00 0.00 0.00 0.00 0.00 0.00 0.00 0.00 0.00 0.00 0.00 0.00 0.00 0.00
0.00 0.00 0.00 0.00 0.00 0.00 0.00 0.00 0.00 0.00 0.00 0.00 0.00 0.00 0.00 0.00 0.00 0.01 0.02 0.04 0.04 0.04 0.08 0.14 0.21 0.09 0.12 0.11 0.06 0.00 0.02 0.12 0.23 0.04 0.00 0.00 0.00 0.00 0.00 0.00 0.00 0.00 0.00 0.00 0.00 0.00 0.00 0.00 0.00
0.00 0.00 0.00 0.00 0.00 0.00 0.00 0.00 0.00 0.00 0.00 0.00 0.00 0.00 0.00 0.00 0.01 0.02 0.02 0.03 0.02 0.02 0.17 0.21 0.40 0.08 0.08 0.13 0.06 0.00 0.01 0.10 0.28 0.03 0.00 0.00 0.00 0.00 0.00 0.00 0.00 0.00 0.00 0.00 0.00 0.00 0.00 0.00 0.00
0.00 0.00 0.00 0.00 0.00 0.00 0.00 0.00 0.00 0.00 0.00 0.00 0.00 0.00 0.00 0.00 0.00 0.03 0.02 0.03 0.02 0.04 0.03 0.07 0.07 0.09 0.13 0.29 0.23 0.07 0.03 0.10 0.15 0.03 0.00 0.00 0.00 0.00 0.00 0.00 0.00 0.00 0.00 0.00 0.00 0.00 0.00 0.00 0.00
0.00 0.00 0.00 0.00 0.00 0.00 0.00 0.00 0.00 0.00 0.00 0.00 0.00 0.00 0.00 0.00 0.00 0.00 0.00 0.00 0.00 0.01 0.02 0.00 0.01 0.03 0.16 0.34 0.33 0.25 0.11 0.06 0.04 0.03 0.00 0.00 0.00 0.00 0.00 0.00 0.00 0.00 0.00 0.00 0.00 0.00 0.00 0.00 0.00
0.00 0.00 0.00 0.00 0.00 0.00 0.00 0.00 0.00 0.00 0.00 0.00 0.00 0.00 0.00 0.00 0.00 0.00 0.00 0.00 0.00 0.00 0.00 0.01 0.01 0.02 0.09 0.23 0.24 0.21 0.18 0.09 0.03 0.02 0.00 0.00 0.00 0.00 0.00 0.00 0.00 0.00 0.00 0.00 0.00 0.00 0.00 0.00 0.00
0.00 0.00 0.00 0.00 0.00 0.00 0.00 0.00 0.00 0.00 0.00 0.00 0.00 0.00 0.00 0.00 0.00 0.00 0.00 0.01 0.01 0.01 0.01 0.03 0.01 0.03 0.02 0.10 0.10 0.10 0.10 0.10 0.05 0.02 0.00 0.00 0.00 0.00 0.00 0.00 0.00 0.00 0.00 0.00 0.00 0.00 0.00 0.00 0.00
0.00 0.00 0.00 0.00 0.00 0.00 0.00 0.00 0.00 0.00 0.00 0.00 0.00 0.00 0.00 0.00 0.00 0.00 0.00 0.00 0.00 0.05 0.04 0.02 0.04 0.24 0.14 0.06 0.08 0.04 0.05 0.08 0.06 0.02 0.00 0.00 0.00 0.00 0.00 0.00 0.00 0.00 0.00 0.00 0.00 0.00 0.00 0.00 0.00
0.00 0.00 0.00 0.00 0.00 0.00 0.00 0.00 0.00 0.00 0.00 0.00 0.00 0.00 0.00 0.00 0.00 0.00 0.00 0.00 0.00 0.02 0.12 0.17 0.16 0.14 0.15 0.25 0.11 0.09 0.03 0.05 0.05 0.01 0.00 0.00 0.00 0.00 0.00 0.00 0.00 0.00 0.00 0.00 0.00 0.00 0.00 0.00 0.00
0.00 0.00 0.00 0.00 0.00 0.00 0.00 0.00 0.00 0.00 0.00 0.00 0.00 0.00 0.00 0.00 0.00 0.00 0.00 0.00 0.00 0.00 0.01 0.19 0.27 0.17 0.10 0.17 0.06 0.04 0.01 0.01 0.02 0.01 0.01 0.00 0.00 0.00 0.00 0.00 0.00 0.00 0.00 0.00 0.00 0.00 0.00 0.00 0.00
0.00 0.00 0.00 0.00 0.00 0.00 0.00 0.00 0.00 0.00 0.00 0.00 0.00 0.00 0.00 0.00 0.00 0.00 0.00 0.00 0.00 0.00 0.00 0.02 0.05 0.06 0.15 0.13 0.05 0.01 0.01 0.00 0.00 0.00 0.00 0.00 0.00 0.00 0.00 0.00 0.00 0.00 0.00 0.00 0.00 0.00 0.00 0.00 0.00
0.00 0.00 0.00 0.00 0.00 0.00 0.00 0.00 0.00 0.00 0.00 0.00 0.00 0.00 0.00 0.00 0.00 0.00 0.00 0.00 0.00 0.00 0.00 0.00 0.01 0.02 0.05 0.08 0.11 0.03 0.00 0.00 0.00 0.00 0.01 0.00 0.00 0.00 0.00 0.00 0.02 0.02 0.01 0.00 0.00 0.00 0.00 0.00 0.00
0.00 0.00 0.00 0.00 0.00 0.00 0.00 0.00 0.00 0.00 0.00 0.00 0.00 0.00 0.00 0.00 0.00 0.00 0.00 0.00 0.00 0.00 0.00 0.00 0.00 0.01 0.01 0.04 0.14 0.04 0.01 0.00 0.00 0.00 0.01 0.00 0.01 0.00 0.00 0.01 0.03 0.04 0.03 0.01 0.00 0.00 0.00 0.00 0.00
0.00 0.00 0.00 0.00 0.00 0.00 0.00 0.00 0.00 0.00 0.00 0.00 0.00 0.00 0.00 0.00 0.00 0.00 0.00 0.00 0.00 0.00 0.00 0.00 0.00 0.00 0.00 0.01 0.03 0.01 0.00 0.00 0.00 0.00 0.00 0.00 0.00 0.00 0.00 0.00 0.00 0.00 0.01 0.01 0.02 0.01 0.00 0.00 0.00
0.00 0.00 0.00 0.00 0.00 0.00 0.00 0.00 0.00 0.00 0.00 0.00 0.00 0.00 0.00 0.00 0.00 0.00 0.00 0.00 0.00 0.00 0.00 0.00 0.00 0.00 0.00 0.00 0.00 0.00 0.00 0.00 0.00 0.00 0.00 0.00 0.00 0.00 0.00 0.00 0.00 0.00 0.00 0.00 0.02 0.03 0.02 0.01 0.01
0.00 0.00 0.00 0.00 0.00 0.00 0.00 0.00 0.00 0.00 0.00 0.00 0.00 0.00 0.00 0.00 0.00 0.00 0.00 0.00 0.00 0.00 0.00 0.00 0.00 0.00 0.00 0.00 0.00 0.00 0.00 0.00 0.00 0.00 0.00 0.00 0.00 0.00 0.00 0.00 0.00 0.00 0.00 0.00 0.00 0.03 0.02 0.02 0.02
0.00 0.00 0.00 0.00 0.00 0.00 0.00 0.00 0.00 0.00 0.00 0.00 0.00 0.00 0.00 0.00 0.00 0.00 0.00 0.00 0.00 0.00 0.00 0.00 0.00 0.00 0.00 0.00 0.00 0.00 0.00 0.00 0.00 0.00 0.00 0.00 0.00 0.00 0.00 0.00 0.00 0.00 0.00 0.00 0.00 0.00 0.01 0.03 0.03
0.00 0.00 0.00 0.00 0.00 0.00 0.00 0.00 0.00 0.00 0.00 0.00 0.00 0.00 0.00 0.00 0.00 0.00 0.00 0.00 0.00 0.00 0.00 0.00 0.00 0.00 0.00 0.00 0.00 0.00 0.00 0.00 0.00 0.00 0.00 0.00 0.00 0.00 0.00 0.00 0.00 0.00 0.00 0.00 0.00 0.00 0.00 0.01 0.03
0.00 0.00 0.00 0.00 0.00 0.00 0.00 0.00 0.00 0.00 0.00 0.00 0.00 0.00 0.00 0.00 0.00 0.00 0.00 0.00 0.00 0.00 0.00 0.00 0.00 0.00 0.00 0.00 0.00 0.00 0.00 0.00 0.00 0.00 0.00 0.00 0.00 0.00 0.00 0.00 0.00 0.00 0.00 0.00 0.00 0.00 0.00 0.02 0.04
0.00 0.00 0.00 0.00 0.00 0.00 0.00 0.00 0.00 0.00 0.00 0.00 0.00 0.00 0.00 0.00 0.00 0.00 0.00 0.00 0.00 0.00 0.00 0.00 0.00 0.00 0.00 0.00 0.00 0.00 0.00 0.00 0.00 0.00 0.00 0.00 0.00 0.00 0.00 0.00 0.00 0.00 0.00 0.00 0.00 0.02 0.02 0.05 0.07
0.00 0.00 0.00 0.00 0.00 0.00 0.00 0.00 0.00 0.00 0.00 0.00 0.00 0.00 0.00 0.00 0.00 0.00 0.00 0.00 0.00 0.00 0.00 0.00 0.00 0.00 0.00 0.00 0.00 0.00 0.00 0.00 0.00 0.00 0.00 0.00 0.00 0.00 0.00 0.00 0.00 0.00 0.00 0.01 0.08 0.24 0.32 0.34 0.30
0.00 0.00 0.00 0.00 0.00 0.00 0.00 0.00 0.00 0.00 0.00 0.00 0.00 0.00 0.00 0.00 0.00 0.00 0.00 0.00 0.00 0.00 0.00 0.00 0.00 0.00 0.00 0.00 0.00 0.01 0.01 0.00 0.00 0.00 0.00 0.00 0.00 0.00 0.00 0.00 0.00 0.00 0.00 0.01 0.04 0.12 0.14 0.13 0.14
MSLP
1012.89 1013.02 1013.04 1012.92 1013.41 1013.08 1012.63 1012.51 1012.42 1011.95 1011.79 1011.68 1011.85 1011.85 1011.62 1011.66 1011.37 1011.72 1011.87 1012.08 1011.87 1011.94 1011.89 1011.93 1012.08 1012.30 1012.48 1012.60 1013.33 1013.76 1013.89 1014.57 1014.43 1014.71 1014.92 1016.41 1016.74 1017.26 1017.66 1018.05 1018.30 1018.63 1019.34 1019.69 1020.09 1020.47 1020.78 1021.26 1021.44
1012.91 1012.89 1012.95 1013.20 1012.88 1012.55 1012.31 1012.09 1011.69 1011.42 1011.35 1011.58 1011.75 1011.72 1011.81 1011.30 1011.79 1011.79 1012.03 1012.35 1012.25 1012.07 1012.30 1012.26 1012.28 1012.38 1012.63 1012.95 1013.26 1013.77 1014.44 1014.63 1014.70 1014.91 1015.29 1016.69 1017.14 1017.66 1018.01 1018.43 1018.80 1019.33 1019.68 1019.98 1020.43 1020.82 1021.29 1021.60 1021.99
1012.82 1012.84 1012.88 1013.17 1012.96 1012.30 1011.79 1011.45 1011.16 1011.00 1011.28 1011.55 1011.58 1011.78 1011.68 1011.51 1011.93 1012.09 1012.39 1012.46 1012.17 1012.17 1012.34 1012.32 1012.46 1012.54 1012.66 1013.05 1013.42 1013.90 1014.48 1014.83 1015.57 1015.47 1015.57 1016.97 1017.42 1017.94 1018.29 1018.63 1019.24 1019.63 1019.98 1020.28 1020.62 1021.41 1021.72 1022.07 1022.35
1012.69 1012.96 1013.76 1013.17 1012.43 1012.14 1011.53 1010.96 1010.97 1010.91 1011.04 1011.52 1011.67 1011.62 1011.81 1012.05 1012.17 1012.43 1012.62 1012.35 1012.40 1012.29 1012.40 1012.71 1012.85 1012.47 1012.66 1013.09 1013.45 1013.94 1014.53 1014.96 1015.49 1015.99 1015.96 1017.19 1017.67 1018.10 1018.58 1019.08 1019.52 1019.73 1020.33 1020.65 1021.20 1021.84 1022.24 1022.59 1022.84
1013.05 1013.09 1013.02 1012.76 1012.24 1011.66 1011.14 1010.91 1011.00 1010.87 1011.03 1011.29 1011.63 1011.41 1011.65 1012.05 1012.30 1012.44 1012.47 1012.47 1012.56 1012.53 1012.40 1012.56 1012.91 1012.85 1012.82 1013.25 1013.70 1014.29 1014.55 1015.12 1015.39 1016.39 1016.58 1017.21 1017.99 1018.28 1019.04 1019.31 1019.89 1020.11 1020.48 1021.16 1021.73 1022.33 1022.78 1022.72 1023.22
1012.87 1013.16 1012.83 1012.24 1011.86 1011.25 1010.82 1010.73 1010.92 1010.92 1011.06 1011.50 1011.73 1011.68 1011.49 1011.95 1012.02 1012.30 1012.52 1012.39 1012.31 1012.63 1012.45 1012.59 1012.94 1013.06 1013.06 1013.29 1013.91 1014.25 1014.79 1015.06 1016.09 1016.26 1016.72 1017.46 1018.18 1018.69 1019.15 1019.72 1020.29 1020.63 1020.90 1021.51 1022.07 1022.76 1022.97 1023.18 1023.46
1012.37 1012.64 1012.39 1012.13 1011.59 1011.14 1010.64 1010.76 1010.75 1010.87 1011.27 1011.48 1011.95 1011.90 1011.70 1011.95 1012.20 1012.16 1012.40 1012.33 1012.25 1012.41 1012.77 1012.79 1012.97 1013.29 1013.65 1013.59 1013.99 1014.28 1015.01 1015.62 1016.26 1016.33 1016.57 1017.86 1018.52 1018.92 1019.60 1020.27 1020.77 1020.95 1021.38 1021.85 1022.46 1022.95 1023.30 1023.54 1023.68
1012.39 1012.43 1012.26 1011.80 1011.23 1010.58 1010.42 1010.51 1010.51 1010.78 1011.07 1011.82 1012.09 1011.86 1011.80 1012.04 1012.46 1012.43 1012.20 1012.23 1012.34 1012.35 1012.50 1013.27 1013.04 1013.70 1014.44 1014.43 1014.49 1014.79 1015.10 1015.98 1016.38 1016.67 1016.97 1018.18 1018.62 1019.30 1020.02 1020.75 1020.99 1021.14 1021.67 1022.24 1022.66 1023.21 1023.64 1023.85 1024.02
1012.41 1012.19 1011.59 1011.21 1011.01 1010.15 1010.24 1010.34 1010.64 1010.94 1011.14 1011.64 1011.87 1012.10 1012.22 1012.21 1012.44 1012.48 1012.16 1012.27 1012.31 1012.34 1012.32 1012.94 1013.26 1014.21 1014.54 1014.72 1015.11 1015.25 1015.35 1015.95 1017.02 1016.90 1017.42 1018.44 1018.82 1019.75 1020.19 1021.02 1021.24 1021.46 1022.01 1022.44 1022.93 1023.45 1024.02 1024.32 1024.43
1011.88 1011.70 1010.93 1010.38 1010.17 1009.82 1009.81 1010.15 1010.21 1010.85 1011.06 1011.29 1011.65 1011.94 1012.27 1012.24 1012.41 1012.57 1012.44 1012.32 1012.40 1012.59 1012.46 1012.67 1013.55 1014.03 1014.36 1014.74 1015.14 1015.45 1015.37 1016.00 1016.78 1017.12 1017.69 1018.52 1019.16 1019.84 1020.30 1021.19 1021.65 1021.80 1022.14 1022.80 1023.43 1023.60 1024.25 1024.53 1024.63
1011.45 1010.86 1010.37 1009.84 1009.67 1009.77 1009.76 1009.94 1010.04 1010.27 1010.49 1010.70 1011.13 1011.55 1012.05 1012.29 1012.43 1012.56 1012.72 1012.65 1012.67 1012.86 1012.85 1012.80 1012.91 1013.35 1014.09 1014.73 1015.33 1015.69 1015.77 1016.27 1017.16 1017.84 1018.06 1018.74 1019.43 1020.10 1020.49 1021.40 1021.96 1022.34 1022.50 1022.97 1023.60 1024.18 1024.22 1024.42 1024.60
1010.96 1010.16 1009.91 1009.45 1009.45 1009.67 1009.64 1009.75 1009.91 1010.14 1010.11 1010.52 1010.97 1011.45 1011.92 1012.26 1012.47 1012.72 1012.85 1012.83 1012.83 1013.01 1013.39 1013.41 1013.48 1013.67 1014.22 1014.68 1015.48 1015.66 1016.26 1016.91 1017.83 1017.99 1018.55 1018.82 1019.41 1020.44 1020.84 1021.34 1021.97 1022.45 1022.64 1022.92 1023.50 1024.13 1024.20 1024.77 1025.10
1010.46 1009.71 1009.44 1009.03 1009.30 1009.32 1009.43 1009.44 1009.82 1009.89 1010.35 1010.78 1011.29 1011.85 1012.16 1012.35 1012.71 1012.85 1012.97 1012.96 1012.95 1013.09 1013.28 1013.76 1013.88 1014.11 1014.25 1014.53 1015.44 1015.85 1016.51 1017.42 1017.86 1017.99 1018.69 1019.02 1019.64 1020.40 1020.98 1021.58 1021.95 1022.30 1022.69 1023.04 1023.36 1023.97 1024.19 1024.65 1025.11
1009.30 1009.32 1009.03 1008.77 1008.71 1008.99 1009.13 1009.41 1009.92 1009.67 1010.30 1010.93 1011.34 1011.83 1012.26 1012.47 1012.68 1012.85 1013.08 1013.17 1013.19 1013.31 1013.48 1013.88 1014.15 1014.46 1014.77 1014.87 1015.59 1016.41 1017.00 1017.60 1018.01 1018.27 1018.82 1019.27 1019.82 1020.63 1021.19 1021.74 1022.03 1022.49 1022.69 1023.16 1023.52 1023.77 1024.08 1024.58 1024.95
1008.99 1009.29 1008.84 1008.62 1008.38 1008.62 1008.95 1009.27 1009.21 1009.40 1010.16 1010.86 1011.27 1011.74 1012.07 1012.34 1012.71 1012.78 1013.02 1013.22 1013.30 1013.46 1013.59 1013.89 1014.38 1014.90 1015.37 1015.58 1016.29 1016.92 1017.46 1017.94 1018.19 1018.73 1019.00 1019.61 1020.07 1020.91 1021.24 1021.92 1022.15 1022.42 1022.99 1023.39 1023.74 1024.11 1024.17 1024.62 1025.05
1009.01 1009.36 1008.90 1008.33 1008.42 1008.79 1008.77 1008.05 1008.46 1009.18 1009.77 1010.45 1011.19 1011.51 1011.77 1012.05 1012.34 1012.68 1013.05 1013.26 1013.52 1013.55 1013.74 1014.22 1014.69 1015.25 1015.65 1016.20 1016.60 1017.19 1017.78 1018.33 1018.71 1019.21 1019.55 1020.17 1019.99 1020.99 1021.58 1021.96 1022.12 1022.50 1023.10 1023.54 1023.70 1024.06 1024.09 1024.58 1025.02
1009.07 1008.68 1008.88 1008.42 1008.23 1008.50 1008.56 1008.06 1008.35 1009.24 1009.59 1009.80 1010.37 1010.94 1011.54 1011.84 1012.21 1012.60 1013.14 1013.41 1013.64 1013.75 1013.77 1014.26 1014.72 1015.20 1015.59 1016.05 1016.88 1017.39 1018.00 1018.65 1019.36 1019.59 1019.86 1020.27 1020.37 1020.96 1021.30 1021.72 1022.13 1022.67 1023.09 1023.56 1023.54 1024.24 1024.03 1024.50 1024.93
1008.22 1008.65 1008.84 1008.54 1008.41 1008.38 1008.19 1007.66 1007.93 1008.73 1009.15 1009.23 1009.55 1010.30 1010.96 1011.57 1011.79 1012.33 1012.90 1013.38 1013.63 1013.73 1013.97 1014.29 1014.63 1015.24 1015.85 1016.32 1016.89 1017.58 1018.09 1018.81 1019.35 1019.30 1019.83 1020.12 1020.31 1020.94 1021.31 1021.70 1022.14 1022.37 1022.81 1023.48 1023.67 1023.98 1024.16 1024.49 1024.89
1008.17 1008.29 1008.42 1008.48 1008.27 1008.14 1007.66 1007.26 1006.89 1007.61 1008.45 1008.85 1009.11 1009.60 1010.15 1010.86 1011.51 1011.93 1012.59 1013.20 1013.46 1013.67 1013.97 1014.27 1014.52 1015.27 1015.58 1016.26 1016.83 1017.66 1017.98 1018.48 1019.12 1019.10 1019.36 1019.70 1020.13 1020.69 1021.19 1021.27 1021.95 1022.31 1022.66 1022.98 1023.38 1023.77 1024.03 1024.42 1024.99
1008.25 1008.09 1007.98 1008.00 1008.02 1007.98 1007.06 1006.61 1006.21 1006.85 1007.14 1007.64 1008.19 1008.63 1009.16 1010.18 1011.16 1011.63 1012.18 1012.78 1013.17 1013.37 1013.67 1014.10 1014.46 1014.91 1015.51 1016.03 1016.57 1017.16 1017.69 1018.28 1018.64 1019.01 1019.01 1019.26 1019.72 1020.22 1020.73 1020.98 1021.47 1022.04 1022.69 1022.89 1023.04 1023.38 1023.67 1024.16 1024.68
1008.09 1008.04 1008.03 1008.08 1008.22 1007.66 1007.22 1006.47 1005.83 1005.95 1006.38 1006.69 1007.12 1007.45 1008.08 1008.86 1010.06 1010.99 1011.61 1012.14 1012.55 1012.99 1013.31 1013.81 1014.27 1014.67 1015.27 1015.98 1016.64 1017.15 1017.76 1018.28 1018.63 1018.62 1018.65 1018.95 1019.40 1019.81 1020.10 1020.68 1021.04 1021.89 1021.97 1022.26 1022.62 1022.68 1022.88 1023.26 1024.03
1007.92 1007.92 1008.03 1008.16 1008.36 1007.59 1007.21 1006.45 1005.80 1005.18 1005.17 1005.32 1005.50 1006.38 1006.81 1007.77 1009.00 1010.02 1010.72 1011.44 1011.93 1012.27 1012.78 1013.27 1013.97 1014.45 1014.90 1015.53 1016.16 1016.44 1016.34 1016.70 1017.19 1017.49 1018.01 1018.45 1019.14 1019.81 1019.82 1020.16 1020.42 1021.14 1021.53 1021.80 1021.94 1022.13 1022.29 1022.70 1022.90
1007.12 1007.54 1007.82 1008.06 1008.14 1007.89 1007.32 1006.68 1005.03 1004.73 1004.14 1003.88 1003.80 1004.51 1005.49 1006.44 1007.53 1008.57 1009.29 1010.10 1011.27 1012.01 1012.43 1012.89 1013.50 1014.00 1014.47 1014.96 1015.47 1015.98 1016.08 1016.21 1016.48 1017.09 1017.70 1017.81 1018.69 1019.11 1019.40 1019.94 1020.05 1020.35 1020.41 1021.14 1021.40 1021.64 1022.02 1022.36 1022.35
1007.01 1007.54 1008.00 1008.25 1008.32 1007.51 1006.67 1006.29 1004.25 1003.80 1002.92 1002.77 1002.73 1003.16 1004.05 1005.29 1006.46 1007.49 1008.60 1009.47 1010.27 1011.41 1012.10 1012.49 1012.76 1013.19 1013.64 1014.18 1014.76 1015.30 1015.50 1015.77 1016.21 1017.06 1017.47 1018.04 1018.69 1018.89 1019.31 1019.55 1019.77 1019.80 1020.07 1020.40 1020.78 1021.08 1021.54 1021.83 1022.11
1006.90 1007.42 1007.96 1008.23 1007.92 1006.50 1006.27 1005.95 1003.67 1002.97 1002.34 1002.08 1002.01 1002.15 1003.24 1004.36 1005.50 1006.46 1007.69 1008.67 1009.38 1010.47 1011.41 1011.88 1012.22 1012.31 1012.83 1013.33 1013.88 1014.41 1014.97 1015.48 1015.80 1016.30 1016.99 1017.44 1018.09 1018.52 1018.77 1019.07 1019.29 1019.36 1019.69 1019.74 1020.13 1020.55 1020.79 1021.18 1021.35
1006.23 1006.67 1006.81 1006.95 1006.88 1006.46 1006.40 1005.05 1003.23 1002.19 1001.73 1001.85 1001.92 1001.97 1002.57 1003.43 1004.36 1005.22 1005.95 1007.23 1008.27 1009.10 1010.35 1011.09 1011.51 1011.73 1012.02 1012.56 1013.10 1013.74 1014.34 1014.80 1015.39 1016.02 1016.38 1016.83 1017.32 1017.77 1018.16 1018.29 1018.42 1018.58 1018.62 1018.97 1019.53 1019.90 1020.10 1020.57 1020.81
1006.10 1006.46 1006.44 1006.77 1007.10 1006.85 1005.71 1004.61 1003.11 1001.87 1001.45 1001.36 1001.28 1001.50 1001.46 1002.34 1003.19 1003.98 1005.08 1006.01 1007.07 1007.78 1008.39 1009.38 1010.20 1010.80 1011.24 1011.50 1012.10 1012.68 1013.25 1013.77 1014.32 1015.18 1015.69 1015.99 1016.47 1016.62 1017.15 1017.20 1017.44 1017.59 1017.93 1018.26 1018.60 1018.72 1019.23 1019.66 1019.76
1004.91 1005.59 1006.52 1006.95 1006.77 1006.38 1005.48 1004.71 1003.26 1002.10 1001.26 1000.71 1000.84 1000.93 1000.92 1001.51 1002.28 1003.02 1003.87 1004.86 1005.75 1006.41 1007.38 1008.41 1008.84 1009.15 1009.75 1010.54 1011.06 1011.54 1012.20 1012.90 1013.65 1014.31 1014.53 1014.87 1015.22 1015.56 1015.87 1016.09 1016.19 1016.48 1016.97 1017.17 1017.74 1018.05 1018.30 1018.61 1019.08
1005.45 1005.53 1005.93 1006.29 1006.57 1006.06 1005.59 1004.39 1002.76 1001.70 1001.29 1000.93 1000.67 1000.59 1000.59 1000.78 1001.43 1002.27 1002.95 1003.89 1004.88 1005.70 1006.45 1007.27 1007.98 1008.52 1009.16 1009.59 1010.01 1010.63 1011.11 1011.81 1012.54 1012.78 1012.80 1012.89 1013.46 1013.93 1014.26 1014.48 1014.94 1015.31 1015.81 1016.16 1016.75 1016.92 1016.95 1017.64 1018.01
1005.54 1005.80 1006.11 1006.61 1006.83 1006.82 1005.97 1004.05 1002.60 1002.37 1001.82 1001.50 1000.90 1000.59 1000.56 1000.43 1000.62 1001.40 1002.27 1003.09 1003.99 1004.76 1005.30 1005.82 1006.71 1007.32 1007.63 1008.48 1009.40 1009.73 1010.37 1010.92 1011.21 1011.39 1011.81 1012.49 1012.79 1013.16 1013.20 1013.71 1014.02 1014.43 1014.90 1015.23 1015.45 1015.80 1016.51 1017.26 1016.87
Thickness
5705 5703 5700 5696 5680 5672 5664 5667 5664 5668 5669 5676 5674 5669 5670 5667 5668 5669 5677 5676 5679 5679 5681 5682 5684 5686 5685 5686 5681 5683 5687 5680 5688 5690 5691 5682 5682 5682 5681 5682 5682 5682 5675 5676 5675 5673 5672 5668 5668
5701 5700 5695 5680 5673 5664 5666 5663 5666 5672 5676 5675 5671 5669 5665 5671 5670 5672 5672 5669 5673 5674 5672 5674 5678 5681 5680 5679 5679 5679 5676 5677 5681 5685 5684 5675 5676 5675 5675 5675 5675 5671 5670 5671 5669 5668 5664 5663 5661
5697 5695 5687 5671 5657 5663 5662 5666 5672 5675 5675 5670 5669 5668 5667 5669 5668 5668 5668 5664 5667 5667 5667 5670 5672 5676 5676 5675 5675 5674 5673 5674 5671 5677 5678 5669 5671 5669 5669 5670 5666 5665 5664 5665 5665 5659 5659 5657 5654
5692 5686 5672 5667 5664 5664 5666 5674 5673 5672 5674 5669 5666 5664 5666 5666 5663 5663 5662 5662 5660 5661 5660 5661 5663 5668 5671 5670 5670 5668 5667 5668 5668 5668 5672 5665 5665 5663 5664 5663 5659 5662 5658 5658 5656 5653 5651 5649 5647
5683 5675 5663 5658 5659 5663 5668 5671 5670 5670 5669 5666 5664 5665 5661 5660 5660 5659 5657 5655 5652 5654 5653 5656 5657 5661 5665 5666 5665 5662 5664 5662 5662 5657 5662 5661 5656 5659 5655 5657 5653 5654 5653 5649 5648 5644 5642 5645 5640
5674 5667 5658 5659 5657 5666 5671 5673 5670 5667 5668 5663 5658 5657 5659 5657 5656 5653 5650 5650 5647 5646 5649 5649 5649 5650 5657 5659 5657 5657 5655 5657 5651 5652 5655 5656 5651 5652 5651 5649 5646 5646 5647 5643 5641 5638 5638 5637 5636
5671 5663 5657 5652 5655 5659 5668 5670 5667 5667 5663 5662 5655 5650 5654 5652 5649 5649 5645 5643 5642 5637 5638 5636 5640 5643 5646 5651 5650 5650 5648 5644 5643 5649 5653 5648 5645 5645 5644 5641 5639 5640 5638 5636 5634 5633 5631 5631 5631
5668 5663 5648 5652 5656 5664 5672 5669 5669 5667 5667 5659 5652 5647 5648 5647 5644 5640 5639 5637 5636 5635 5636 5626 5632 5634 5632 5637 5639 5641 5641 5636 5635 5639 5644 5639 5641 5639 5639 5633 5634 5635 5632 5629 5630 5627 5625 5625 5624
5664 5656 5652 5656 5651 5667 5671 5666 5664 5665 5662 5657 5651 5645 5644 5643 5639 5636 5633 5632 5632 5632 5634 5629 5625 5624 5626 5629 5630 5632 5633 5630 5626 5632 5635 5633 5635 5633 5633 5626 5628 5629 5626 5624 5623 5622 5618 5616 5617
5663 5653 5659 5668 5667 5669 5673 5666 5669 5662 5658 5656 5650 5647 5642 5639 5634 5631 5630 5630 5628 5625 5627 5629 5624 5624 5627 5626 5623 5625 5627 5624 5623 5627 5629 5628 5629 5627 5627 5622 5621 5622 5622 5618 5615 5617 5613 5609 5610
5658 5659 5663 5669 5672 5670 5666 5663 5668 5665 5662 5660 5652 5647 5642 5637 5632 5629 5627 5626 5625 5624 5622 5626 5627 5628 5623 5621 5618 5619 5620 5618 5617 5617 5620 5621 5622 5620 5620 5616 5614 5613 5615 5611 5608 5607 5606 5608 5608
5656 5663 5666 5672 5670 5666 5662 5665 5662 5663 5667 5663 5656 5649 5641 5636 5630 5626 5625 5624 5624 5623 5620 5618 5620 5620 5616 5615 5611 5614 5613 5611 5608 5613 5614 5618 5618 5613 5613 5613 5610 5609 5609 5608 5605 5602 5604 5601 5598
5654 5662 5666 5672 5668 5666 5665 5665 5663 5661 5661 5659 5651 5643 5636 5634 5629 5626 5624 5624 5623 5622 5620 5615 5614 5612 5611 5609 5605 5608 5609 5606 5606 5609 5609 5611 5611 5608 5607 5607 5606 5607 5606 5604 5601 5597 5598 5597 5594
5666 5662 5666 5669 5671 5668 5663 5661 5659 5664 5659 5653 5649 5641 5634 5631 5628 5625 5621 5619 5621 5620 5618 5613 5610 5608 5604 5603 5600 5599 5601 5602 5601 5603 5604 5606 5605 5603 5601 5600 5602 5601 5600 5598 5596 5595 5593 5590 5589
5662 5655 5661 5663 5669 5666 5664 5659 5657 5664 5658 5650 5645 5640 5636 5632 5627 5624 5621 5619 5619 5617 5617 5613 5607 5601 5599 5597 5592 5592 5594 5593 5596 5599 5601 5597 5599 5597 5596 5593 5595 5596 5593 5591 5590 5589 5589 5586 5584
5653 5647 5646 5661 5660 5657 5662 5660 5667 5662 5657 5652 5644 5641 5638 5634 5631 5627 5621 5617 5614 5612 5611 5608 5604 5599 5598 5594 5592 5590 5591 5591 5593 5594 5592 5590 5596 5591 5589 5589 5590 5589 5586 5585 5585 5583 5585 5582 5579
5640 5643 5636 5648 5659 5654 5657 5659 5662 5654 5654 5655 5649 5644 5638 5635 5631 5626 5620 5616 5611 5607 5606 5605 5601 5599 5598 5596 5591 5589 5587 5586 5585 5586 5586 5587 5589 5588 5588 5586 5585 5583 5580 5579 5581 5576 5579 5577 5576
5639 5632 5632 5639 5650 5650 5651 5658 5662 5654 5653 5657 5655 5647 5640 5634 5632 5629 5623 5617 5612 5608 5604 5604 5601 5598 5596 5593 5591 5587 5585 5583 5582 5586 5584 5586 5586 5584 5584 5583 5581 5582 5578 5574 5573 5573 5573 5571 5570
5641 5637 5637 5637 5646 5646 5649 5657 5668 5660 5653 5652 5654 5652 5646 5638 5635 5632 5625 5619 5616 5612 5606 5602 5601 5597 5597 5593 5591 5587 5587 5585 5582 5585 5586 5587 5584 5582 5581 5583 5579 5577 5575 5573 5571 5570 5569 5568 5566
5637 5639 5641 5641 5640 5640 5652 5657 5670 5659 5659 5658 5657 5655 5652 5643 5634 5631 5627 5621 5617 5616 5613 5607 5605 5600 5596 5593 5592 5591 5589 5585 5584 5584 5588 5587 5585 5583 5582 5580 5578 5574 5570 5569 5570 5570 5570 5568 5566
5633 5636 5633 5635 5630 5640 5640 5649 5665 5667 5660 5660 5661 5663 5659 5652 5640 5633 5628 5626 5622 5619 5616 5611 5606 5602 5596 5593 5589 5588 5585 5582 5582 5586 5589 5587 5584 5582 5581 5578 5577 5571 5571 5572 5570 5573 5575 5573 5569
5621 5634 5632 5628 5622 5626 5639 5627 5652 5668 5667 5665 5669 5662 5663 5657 5648 5640 5635 5630 5626 5624 5621 5617 5610 5604 5601 5597 5593 5594 5595 5592 5591 5591 5588 5587 5582 5576 5579 5578 5579 5576 5572 5573 5574 5575 5577 5575 5577
5634 5631 5628 5626 5620 5622 5627 5626 5651 5658 5667 5674 5680 5675 5668 5664 5657 5650 5647 5641 5631 5625 5622 5619 5614 5610 5605 5602 5600 5596 5597 5597 5597 5593 5589 5591 5584 5582 5581 5578 5581 5580 5581 5575 5577 5578 5575 5572 5575
5629 5624 5617 5611 5612 5611 5630 5629 5653 5662 5674 5677 5684 5684 5677 5669 5662 5658 5652 5646 5639 5630 5624 5622 5620 5617 5615 5610 5605 5601 5598 5598 5597 5591 5589 5586 5582 5583 5581 5581 5579 5579 5580 5580 5578 5577 5573 5572 5571
5620 5613 5599 5596 5600 5620 5624 5617 5656 5667 5675 5679 5683 5690 5680 5673 5666 5662 5655 5649 5645 5635 5627 5626 5624 5623 5619 5616 5611 5605 5602 5599 5597 5595 5591 5590 5586 5584 5582 5580 5580 5580 5577 5578 5575 5574 5574 5572 5572
5613 5616 5608 5598 5603 5619 5613 5617 5652 5672 5682 5677 5679 5682 5681 5676 5672 5668 5666 5658 5652 5645 5634 5629 5627 5626 5625 5621 5616 5611 5606 5603 5598 5594 5593 5592 5589 5585 5581 5582 5582 5582 5583 5578 5574 5572 5573 5570 5568
5602 5598 5620 5601 5594 5598 5616 5629 5655 5671 5676 5677 5679 5680 5686 5682 5676 5674 5668 5664 5659 5654 5650 5641 5635 5631 5628 5627 5623 5618 5614 5611 5606 5599 5596 5594 5590 5590 5586 5586 5586 5584 5580 5576 5575 5576 5573 5568 5569
5613 5616 5597 5591 5591 5593 5606 5612 5636 5654 5668 5679 5676 5680 5685 5685 5679 5677 5674 5669 5666 5662 5656 5648 5645 5642 5638 5632 5628 5625 5620 5614 5607 5602 5601 5598 5597 5593 5590 5589 5589 5587 5581 5580 5575 5573 5572 5569 5564
5598 5603 5603 5605 5596 5599 5596 5611 5639 5659 5663 5668 5675 5680 5683 5687 5683 5679 5678 5672 5666 5662 5659 5652 5647 5644 5638 5635 5632 5628 5624 5618 5612 5611 5611 5611 5606 5601 5598 5595 5591 5588 5583 5579 5575 5575 5574 5566 5561
5597 5597 5598 5590 5592 5581 5583 5607 5641 5646 5652 5656 5667 5673 5678 5683 5685 5681 5677 5674 5669 5664 5662 5658 5652 5649 5646 5639 5632 5629 5625 5620 5619 5617 5612 5606 5604 5601 5599 5593 5589 5583 5580 5578 5577 5573 5565 5558 5561